Tracking 25689 objects as of 7-Jul-2022
HD Live streaming from Space Station
objects crossing your sky now

FENGYUN 1C DEB

Track FENGYUN 1C DEB now!
10-day predictions


NORAD ID: 31302
Int'l Code: 1999-025BPL
Perigee: 826.3 km
Apogee: 876.4 km
Inclination: 99.4 °
Period: 101.8 minutes
Semi major axis: 7222 km
RCS: 0.011 m2 (small)
Launch date: May 10, 1999
Source: People's Republic of China (PRC)
Launch site: Taiyaun Space Center, China (TSC)

Note: This is SATELLITE DEBRIS
aabbcc
Your satellite tracking list
Your tracking list is empty




NASA's NSSDC Master Catalog

Two Line Element Set (TLE):
1 31302U 99025BPL 22187.78787722  .00001065  00000-0  57827-3 0  9996
2 31302  99.3800 133.4109 0034694 357.2677  32.7348 14.14443628785435
Source of the keplerian elements: AFSPC